Theta_e
290 290 289 289 289 289 289 289 289 289 289 289 289 289 289 289 289 289 289 289 289 289 290 290 290 290 290 290 290 290 290 290 291 291 291 291 291 291 292 292 292 292 292 292 293 293 293 293 293 294 294 294 294 294 294 295 295 295 295 295 295 295 295 295 296 296 296 295 295 295 295 295 295 295 295 295 296 296 296 296 296 297 297 297 297 297
290 289 289 289 289 289 289 289 289 289 289 289 289 289 289 289 289 289 289 290 290 290 290 290 290 290 290 290 290 290 290 290 291 291 291 291 291 292 292 292 292 292 293 293 293 293 293 293 293 294 294 294 294 294 294 294 294 294 294 295 295 295 295 295 295 295 295 295 295 295 295 295 295 295 295 295 295 296 296 296 296 296 297 297 297 297
289 289 289 289 289 289 289 289 289 289 289 289 289 289 289 289 289 290 290 290 290 290 290 290 290 290 290 290 290 290 291 291 291 291 291 292 292 292 292 292 292 293 293 293 293 293 293 293 293 293 294 294 294 294 294 294 294 294 294 294 294 294 294 294 294 294 294 294 294 294 294 294 294 295 295 295 295 295 296 296 296 296 296 297 297 297
289 289 289 289 289 289 289 289 289 289 289 289 289 289 289 289 290 290 290 290 290 290 290 290 290 291 291 291 291 291 291 291 291 291 291 292 292 292 292 292 292 292 293 293 293 293 293 293 293 293 294 294 294 294 294 294 294 294 294 294 294 294 294 294 294 294 294 294 294 294 294 294 295 295 295 295 295 295 295 295 296 296 296 296 297 297
289 289 289 289 289 289 289 289 289 289 289 289 289 289 290 290 290 290 290 290 290 291 291 291 291 291 291 291 291 291 291 291 291 291 292 292 292 292 292 292 292 293 293 293 293 293 293 293 293 293 293 294 294 294 294 294 294 294 294 294 294 294 294 294 294 294 294 294 294 294 294 294 294 294 295 295 295 295 295 295 295 295 296 296 296 296
289 289 289 289 289 289 289 289 289 289 289 289 290 290 290 290 290 290 291 291 291 291 291 291 291 291 291 291 291 291 291 291 291 291 292 292 292 292 292 292 293 293 293 293 293 293 293 293 293 293 293 293 293 293 294 294 294 294 294 294 294 293 294 294 294 294 294 294 294 294 294 294 294 294 294 294 294 294 295 295 295 295 295 296 296 296
289 289 289 289 289 289 289 289 289 289 290 290 290 290 290 291 291 291 291 291 291 291 291 291 291 291 291 291 291 291 291 291 291 291 291 291 292 292 292 292 292 292 293 293 293 293 293 293 293 293 293 293 293 293 293 293 293 294 294 294 293 293 293 293 293 293 293 293 293 293 293 293 293 293 294 294 294 294 294 294 294 295 295 295 295 296
289 289 289 289 289 289 289 289 289 290 290 290 290 291 291 291 291 291 291 291 291 291 291 291 291 291 291 291 291 291 291 291 291 291 291 291 291 292 292 292 292 292 292 293 293 293 293 293 293 293 293 293 293 293 293 293 293 293 293 293 293 293 293 293 293 293 293 293 293 293 293 293 293 293 293 293 293 293 293 294 294 294 294 294 295 295
289 289 289 289 289 289 290 290 290 290 290 291 291 291 291 291 291 291 291 291 291 291 291 291 291 291 291 291 291 291 291 291 291 291 291 291 291 292 292 292 292 292 292 292 292 292 293 293 293 293 293 293 293 293 293 293 293 293 293 293 293 293 293 293 292 292 292 292 292 292 292 292 292 292 293 293 293 293 293 293 293 293 294 294 294 294
289 289 289 290 290 290 290 290 291 291 291 291 291 290 291 291 291 291 291 291 291 291 291 291 291 291 291 291 290 291 291 291 291 291 291 291 291 292 292 292 292 292 292 292 292 292 292 292 292 292 292 292 292 292 292 292 292 292 292 292 292 292 292 292 292 292 292 292 292 292 292 292 292 292 292 292 293 293 293 293 293 293 293 293 294 294
290 290 290 290 290 291 291 291 291 290 290 290 290 290 291 291 291 291 291 291 291 291 291 291 291 290 290 290 290 291 291 291 291 291 291 291 291 291 292 292 292 292 292 292 292 292 292 292 292 292 292 292 292 292 292 292 292 292 292 291 291 291 291 291 291 291 291 291 291 291 292 292 292 292 292 292 292 292 292 293 293 293 293 293 293 294
291 291 291 291 291 291 291 290 290 290 290 291 291 291 291 291 291 291 291 291 291 291 291 290 290 290 290 290 290 290 291 291 291 291 291 291 291 291 292 292 292 292 292 292 292 292 292 291 291 291 291 291 291 291 291 291 291 291 291 291 291 291 291 291 291 291 291 291 291 291 291 291 291 291 291 291 292 292 292 292 292 292 293 293 293 293
291 291 291 291 291 290 290 290 290 290 290 291 291 291 291 291 291 291 291 291 290 290 290 290 290 290 290 290 290 290 290 291 291 291 291 291 291 291 291 291 291 291 291 291 291 291 291 291 291 291 291 291 291 291 291 291 291 291 291 291 291 291 291 291 291 291 291 291 291 291 291 291 291 291 291 291 291 292 292 292 292 292 292 293 293 293
291 291 291 290 290 290 290 290 290 290 291 291 291 291 291 290 290 290 290 290 290 290 290 290 290 290 290 290 290 290 291 291 291 291 291 291 291 291 291 291 291 291 291 291 291 291 291 291 291 291 291 291 291 291 291 291 291 291 291 291 291 290 290 290 290 290 290 290 290 290 290 291 291 291 291 291 291 292 292 292 292 292 293 293 293 293
290 290 290 290 290 290 290 290 290 290 290 290 290 290 290 290 290 290 290 290 290 290 290 290 290 290 290 290 290 290 290 291 291 291 291 291 291 291 291 291 291 291 291 291 290 290 290 290 290 290 290 290 290 290 290 290 290 290 290 290 290 290 290 290 290 290 290 290 290 290 290 291 291 291 291 291 292 292 292 292 292 292 292 293 293 293
290 290 290 290 290 290 290 290 290 290 290 290 290 290 290 290 290 290 290 290 290 290 290 290 290 290 290 290 290 290 290 291 291 291 291 291 291 291 291 291 290 290 290 290 290 290 290 290 290 290 290 290 290 290 290 290 290 290 290 289 289 289 290 290 290 290 290 290 290 290 291 291 291 291 291 291 291 291 291 291 291 292 292 292 292 292
290 290 290 290 290 290 290 290 290 290 290 290 290 290 290 290 290 290 290 290 290 290 290 291 291 291 291 290 290 290 290 290 290 291 291 290 290 290 290 290 290 290 290 290 290 290 290 290 290 290 290 290 289 289 289 289 289 289 289 289 289 289 289 289 289 290 290 290 290 290 290 290 290 291 291 291 291 291 291 291 291 291 291 291 292 292
289 289 289 289 289 289 289 289 289 289 289 289 289 289 290 290 290 290 290 290 290 290 291 291 291 291 291 291 290 290 290 290 290 290 290 290 290 290 290 289 289 289 289 289 289 289 289 289 289 289 289 289 289 289 289 289 289 289 289 289 289 289 289 289 289 289 289 289 290 290 290 290 290 290 290 290 291 291 291 291 291 291 291 291 291 291
289 289 289 289 289 289 289 289 289 289 289 289 289 290 290 290 290 290 290 290 290 290 291 291 291 290 290 290 290 290 290 290 290 290 290 290 290 289 289 289 289 289 289 289 289 289 289 289 289 289 289 289 288 288 288 288 288 289 289 289 289 289 289 289 289 289 289 289 289 290 290 290 290 290 290 290 290 291 291 291 291 291 291 291 291 292
288 288 288 288 288 288 289 289 289 289 289 289 290 290 290 290 290 290 290 290 290 290 290 290 291 291 290 290 290 290 290 290 289 289 289 289 289 289 289 289 289 289 289 289 289 289 289 289 289 288 288 288 288 288 288 288 288 288 288 288 288 288 289 289 289 289 289 289 289 290 290 290 290 290 290 290 291 291 291 291 291 291 292 292 292 292
288 288 288 288 288 288 288 289 289 289 289 289 290 290 290 290 290 290 290 290 290 290 290 290 291 291 290 290 290 289 289 289 289 289 289 289 289 289 289 289 289 289 289 289 289 289 288 288 288 288 288 288 288 288 288 288 288 288 288 288 288 288 288 289 289 289 289 289 289 290 290 290 290 290 290 291 291 291 291 291 291 292 292 292 292 292
287 287 287 288 288 288 288 289 289 289 289 290 290 290 290 290 290 290 290 290 290 290 291 291 291 290 290 289 289 289 289 289 289 289 288 288 288 288 288 288 288 288 288 288 288 288 288 288 288 288 288 288 287 287 288 287 288 288 288 288 288 288 288 289 289 289 289 289 290 290 290 290 290 290 291 291 291 291 291 291 292 292 292 292 292 293
287 287 287 288 288 288 289 289 289 289 289 290 290 290 289 289 289 289 290 290 291 291 291 290 290 289 289 289 289 288 288 288 288 288 288 288 288 288 288 288 288 288 288 288 288 288 288 287 287 287 287 287 287 287 287 287 287 288 288 288 288 288 288 288 289 289 289 289 290 290 290 290 291 291 291 291 291 291 291 291 291 291 291 292 292 292
287 287 287 288 288 288 288 289 289 289 289 289 289 289 289 289 290 291 292 292 291 290 289 289 288 288 288 288 288 288 288 288 288 288 287 288 288 288 288 288 288 288 288 287 287 287 287 287 287 287 287 287 287 287 287 287 287 287 287 288 288 288 288 289 289 289 290 290 290 290 290 290 290 290 290 290 290 290 290 290 291 291 291 291 291 291
287 287 288 288 288 288 288 289 289 289 289 289 289 290 290 291 291 291 291 290 289 289 289 288 288 288 288 287 287 287 287 287 287 287 287 287 287 287 287 287 287 287 287 287 287 287 287 287 287 287 287 287 287 287 287 287 287 287 287 288 288 288 289 289 289 289 290 290 290 290 289 289 289 289 289 289 289 290 290 291 291 291 291 290 290 289
288 288 288 288 289 289 289 289 290 290 290 291 291 292 292 292 291 290 289 289 289 288 288 288 287 287 287 287 287 287 287 287 287 287 287 287 287 287 287 287 287 287 287 287 287 287 286 286 286 286 286 286 286 286 287 287 287 287 288 288 288 289 289 289 289 289 289 289 289 289 288 288 288 288 288 289 289 290 290 291 290 290 289 289 289 288
288 289 289 289 289 290 290 290 290 291 291 291 291 291 290 290 290 289 289 289 288 288 287 287 287 287 287 286 286 286 286 286 286 286 286 286 286 286 286 286 286 286 286 286 286 286 286 286 286 286 286 286 286 286 287 287 287 288 288 288 288 288 288 288 288 288 288 288 288 288 288 288 288 288 288 289 289 290 290 289 289 289 288 288 288 288
289 289 289 289 290 290 290 290 290 291 291 290 290 290 290 289 289 289 288 288 287 287 286 286 286 286 286 286 286 286 286 286 286 286 286 286 286 286 286 286 286 286 286 286 286 286 286 286 286 286 286 286 286 286 287 287 287 287 287 287 287 287 287 287 287 287 287 287 287 287 287 287 288 288 288 288 289 289 289 288 288 288 288 288 288 288
289 289 289 289 290 290 290 290 290 290 290 289 289 289 289 288 288 288 287 287 286 286 286 285 285 285 285 285 285 285 285 285 286 286 286 286 286 286 286 286 286 286 285 285 285 285 285 285 286 286 286 286 286 286 286 286 286 286 286 286 287 287 287 287 287 287 287 287 287 287 287 287 287 287 288 288 288 288 288 288 288 288 287 287 287 287
289 289 289 290 290 290 290 290 289 289 289 288 288 288 287 287 287 286 286 286 285 285 285 285 284 284 284 284 284 285 285 285 286 286 286 286 286 286 285 285 285 285 285 285 285 285 285 286 286 286 286 286 286 286 286 286 286 286 286 286 286 286 286 286 286 286 286 286 286 287 287 287 287 287 287 287 287 287 287 287 287 287 287 287 287 287
290 290 290 290 290 289 289 289 288 288 288 287 287 286 286 286 285 285 285 285 284 284 284 284 284 284 284 284 284 285 285 286 286 286 285 285 285 285 285 285 285 285 285 285 285 285 285 286 286 286 286 285 285 285 285 285 285 285 286 286 286 286 286 286 286 286 286 286 286 286 286 286 286 286 287 287 287 287 287 287 287 287 287 287 287 286
290 290 289 289 288 288 288 287 287 287 286 286 286 285 285 285 284 284 284 284 284 283 283 283 283 283 283 284 284 284 285 285 285 285 285 284 284 284 284 284 284 284 284 284 284 285 285 286 285 285 285 285 285 285 285 285 285 285 285 285 285 285 286 286 286 286 286 286 286 286 286 286 286 286 286 286 286 287 287 287 287 286 286 286 286 286
289 288 288 288 287 287 287 286 286 286 285 285 285 285 284 284 284 284 284 283 283 283 283 283 283 283 283 284 284 284 284 284 284 284 284 284 284 284 284 284 284 284 284 284 284 284 285 285 285 285 284 284 284 284 284 285 285 285 285 285 285 285 285 285 285 285 285 285 285 285 285 285 286 286 286 286 286 286 286 286 286 286 286 286 286 286
288 287 287 287 286 286 286 286 285 285 285 285 285 284 284 284 284 283 283 283 283 283 283 283 283 283 283 284 284 284 284 284 284 284 284 283 283 284 284 284 284 284 284 284 285 285 285 284 284 284 284 284 284 284 284 284 284 284 285 285 285 285 285 285 285 285 285 285 285 285 285 285 285 286 286 286 286 286 286 286 286 286 286 285 285 285
287 286 286 286 286 285 285 285 285 285 285 285 284 284 284 283 283 283 283 283 282 282 283 283 283 283 283 283 283 283 283 283 283 283 283 283 283 283 283 283 284 284 284 285 285 284 284 284 284 284 284 284 284 284 284 284 284 284 284 284 284 284 284 284 284 284 284 284 284 285 285 285 285 286 286 286 286 286 286 285 285 285 285 285 285 285
286 286 285 285 285 285 285 285 285 285 284 284 284 283 283 283 283 282 282 282 282 282 282 282 283 282 283 283 283 282 282 282 282 282 282 282 283 283 283 283 284 284 284 284 284 284 284 284 284 284 284 284 284 284 284 284 284 284 284 284 284 284 284 284 284 284 284 284 285 285 285 285 285 285 285 285 285 285 285 285 285 284 284 284 284 284
285 285 285 285 285 285 285 284 284 284 284 283 283 283 283 282 282 282 282 282 282 282 282 282 282 282 282 282 282 282 282 282 282 282 282 282 282 283 283 283 284 284 284 284 284 284 283 284 284 284 284 284 284 284 284 284 284 284 284 284 284 284 284 284 284 284 284 284 285 285 285 285 285 285 285 285 285 285 284 284 284 284 284 283 283 284
285 285 285 285 285 285 284 284 284 283 283 283 283 282 282 282 281 281 281 281 281 281 281 281 281 281 281 281 281 281 281 281 282 282 282 282 282 283 283 284 284 284 284 284 283 283 283 283 284 284 284 284 284 284 284 284 284 284 284 283 283 283 284 284 284 284 284 284 285 285 285 285 285 285 285 285 284 284 284 283 283 283 283 283 283 283
285 285 285 285 284 284 284 284 283 283 283 282 282 281 281 280 280 280 280 280 280 280 280 280 280 281 281 281 281 281 281 281 282 282 282 282 283 283 284 284 284 284 283 283 283 283 283 283 283 283 284 283 284 283 283 283 283 283 283 283 283 283 284 284 284 284 284 284 284 284 285 285 285 285 284 284 284 284 283 283 283 283 283 282 282 282
285 284 284 284 284 283 283 283 282 282 282 281 280 280 280 280 279 279 279 280 280 280 280 280 280 280 280 281 281 281 281 281 282 282 282 283 283 284 284 283 283 283 283 283 283 283 283 283 283 283 283 283 283 283 283 283 283 283 283 283 283 284 284 284 284 284 284 284 284 284 284 285 285 284 284 284 283 283 283 283 282 282 282 282 282 282
284 284 284 283 283 283 282 282 282 281 280 280 280 279 279 279 279 279 279 280 280 280 280 280 280 280 280 280 281 281 281 281 282 282 283 283 283 283 283 283 283 283 283 283 283 283 283 283 283 283 283 283 283 283 283 283 283 283 283 283 283 283 283 283 284 284 284 284 284 284 284 284 284 284 284 283 283 283 283 282 282 282 282 282 282 282
283 283 283 283 282 282 281 281 280 280 280 279 279 279 279 279 279 279 279 279 279 279 279 279 280 280 280 280 280 281 281 282 282 282 283 283 283 283 282 283 283 283 283 283 283 283 283 283 283 283 283 283 283 283 283 283 283 283 283 283 283 283 283 283 284 284 284 284 284 284 284 284 284 283 283 283 282 282 282 282 282 282 282 282 282 282
283 282 282 282 282 281 281 280 280 279 279 279 279 279 279 279 279 279 278 279 279 279 279 279 280 280 280 280 281 281 281 282 282 282 282 282 282 282 282 283 283 283 283 283 283 283 283 283 283 283 283 283 282 282 283 283 283 283 283 283 283 283 283 284 284 284 284 284 284 284 284 284 283 283 283 282 282 282 282 282 282 282 282 282 282 282
282 282 282 281 281 280 280 280 279 279 279 279 279 279 278 278 278 278 278 278 278 279 279 279 279 280 280 280 281 281 281 282 282 282 282 282 282 282 282 282 283 283 283 283 283 283 283 283 283 283 283 282 282 282 282 282 283 283 283 283 283 283 283 284 284 284 284 284 284 284 283 283 283 282 282 282 282 282 281 281 281 281 281 282 282 282
281 281 281 280 280 280 280 280 279 279 279 279 278 278 278 278 278 278 278 278 278 278 279 279 279 280 280 280 281 281 281 282 282 282 282 282 282 282 282 283 283 283 283 283 283 283 283 283 283 282 282 282 282 282 282 282 282 283 283 283 283 283 284 284 284 284 284 284 283 283 283 283 282 282 282 282 282 281 281 281 281 281 281 282 282 282
281 280 280 280 280 280 280 279 279 279 279 278 278 278 278 278 278 278 278 278 278 278 278 279 279 279 280 280 281 281 281 281 282 282 282 282 282 282 282 283 283 283 283 283 283 283 283 283 283 283 282 282 282 282 282 283 283 283 283 283 283 284 284 284 284 284 283 283 283 283 282 282 282 282 282 282 282 281 281 281 281 281 282 282 282 282
281 280 280 280 280 280 279 279 279 279 278 278 278 278 278 278 277 277 277 277 278 278 278 279 279 279 280 280 280 281 281 281 281 282 282 282 282 282 283 283 283 283 283 283 283 283 283 283 283 283 283 283 283 283 283 283 283 283 283 283 284 284 284 284 284 283 283 283 283 282 282 282 282 282 282 281 281 281 281 281 281 282 282 282 282 282
280 280 280 280 280 279 279 279 279 278 278 278 278 278 277 277 277 277 277 277 277 278 278 279 279 279 280 280 280 281 281 281 281 281 282 282 282 282 283 283 283 283 283 283 283 283 283 282 282 282 282 283 283 283 283 283 283 283 283 284 284 284 284 284 283 283 283 283 282 282 282 282 282 282 281 281 281 281 281 282 282 282 282 282 282 282
280 280 280 280 279 279 279 279 278 278 278 278 278 277 277 277 277 277 277 277 277 278 278 278 279 279 279 280 280 281 281 281 281 281 282 282 282 282 282 282 282 282 282 282 282 282 282 282 282 282 283 283 283 283 283 283 283 284 284 284 284 284 284 283 283 283 283 282 282 282 282 282 281 281 281 281 281 281 282 282 282 282 282 282 282 282
280 280 280 279 279 279 279 278 278 278 278 278 277 277 277 277 277 277 277 277 277 277 278 278 279 279 279 280 280 280 281 281 281 281 281 282 282 282 282 282 282 282 282 282 282 282 282 282 282 282 283 283 283 283 283 284 284 284 284 284 284 283 283 283 283 283 282 282 282 282 281 281 281 281 281 281 281 281 282 282 282 282 282 282 282 282
280 280 279 279 279 279 279 278 278 278 278 278 277 277 277 277 277 277 277 277 277 277 278 278 278 279 279 280 280 280 280 281 281 281 281 281 281 281 281 281 281 281 282 282 282 282 282 282 282 283 283 283 283 283 284 284 284 284 284 283 283 283 283 283 282 282 282 282 282 281 281 281 281 281 281 281 281 281 282 282 282 282 282 282 282 282
Wind_Speed
20 21 20 20 21 22 23 22 22 23 24 23 23 23 23 24 24 25 26 26 25 25 26 26 26 27 28 28 29 29 29 30 31 31 32 33 33 34 34 35 35 36 36 36 37 37 37 37 38 38 38 38 39 39 39 40 40 40 41 41 41 42 42 42 43 43 43 43 43 44 44 44 44 43 44 44 44 44 44 44 44 43 43 44 44 44
20 21 21 20 20 21 23 22 21 21 22 23 23 23 24 25 25 26 25 25 24 25 25 25 26 27 27 28 28 29 29 30 30 31 31 32 33 33 34 35 35 36 36 37 37 37 37 38 38 38 38 39 39 39 40 40 40 41 41 41 42 42 42 43 43 43 43 44 44 44 44 44 44 44 44 44 44 44 44 44 43 43 43 43 44 44
21 21 21 20 20 20 21 21 21 20 21 22 23 24 24 25 25 25 25 24 24 24 24 25 26 26 27 27 28 28 28 29 29 30 31 32 33 33 34 35 36 36 36 37 37 37 37 38 38 38 38 39 39 40 40 40 41 41 41 42 42 42 42 43 43 43 44 44 44 44 45 45 44 44 44 44 44 44 44 44 44 44 43 43 44 44
20 20 21 20 20 20 20 20 21 21 21 22 23 24 24 24 24 24 24 24 24 24 24 24 25 25 26 26 26 27 27 28 29 30 31 32 33 34 35 35 36 36 36 37 37 37 37 37 38 38 38 39 39 39 40 40 41 41 41 42 42 42 43 43 43 44 44 44 45 45 45 45 45 44 44 44 44 44 44 44 44 44 44 44 44 43
20 20 20 20 20 20 20 20 20 21 21 22 23 23 23 23 23 23 24 24 24 24 24 23 24 24 25 25 25 26 27 28 30 31 32 33 34 34 35 35 36 36 36 36 36 36 36 37 37 37 38 38 39 39 39 40 40 41 41 42 43 43 44 44 44 44 44 45 45 45 45 45 45 45 45 45 45 45 45 45 45 44 44 44 44 44
21 19 19 19 20 20 20 20 20 20 21 22 22 22 22 22 22 23 23 24 24 24 24 24 24 24 24 25 25 26 28 29 30 31 32 32 33 34 34 34 35 35 35 35 35 35 36 36 36 37 37 38 38 39 39 40 40 41 41 42 43 43 44 44 44 44 45 45 45 45 45 44 44 44 44 44 45 45 44 44 44 44 44 44 44 44
22 20 20 19 20 20 20 20 20 20 20 21 21 21 21 21 22 22 23 23 23 24 24 24 24 24 24 24 25 26 27 29 30 30 31 31 32 33 33 34 34 34 34 34 34 35 35 36 36 36 37 37 38 38 39 39 40 40 41 42 42 43 43 44 44 44 44 44 44 44 44 44 44 43 43 43 44 43 43 43 43 44 44 44 44 44
22 22 20 19 19 19 20 20 19 19 19 19 20 21 22 22 22 22 23 22 22 22 23 23 23 23 23 23 25 26 27 28 29 30 30 31 31 32 32 33 33 33 33 34 34 34 34 35 35 36 36 37 37 38 38 39 40 40 41 41 42 42 43 43 43 43 43 43 43 44 44 44 43 43 43 43 42 42 42 42 42 43 43 43 43 43
21 22 21 20 19 19 20 21 19 18 18 18 19 21 22 23 24 23 23 22 21 21 21 22 23 24 25 24 25 26 27 27 28 29 30 31 31 31 32 32 33 33 33 33 33 33 33 34 34 35 35 35 36 37 38 38 39 40 40 40 40 41 41 41 42 42 42 43 43 43 43 43 43 43 43 42 42 42 42 42 42 42 43 43 43 43
21 21 21 20 19 19 20 20 20 19 18 19 19 20 21 22 23 23 23 22 21 21 21 22 24 25 27 26 26 26 27 28 28 29 30 31 31 31 32 32 31 31 31 31 31 31 32 32 33 33 34 34 35 36 37 38 39 39 40 40 40 40 40 40 40 41 41 42 42 42 43 43 43 42 42 42 42 42 42 42 42 42 43 43 43 43
20 20 20 20 20 19 19 19 20 19 19 19 20 20 20 20 20 21 22 23 24 24 23 23 24 25 27 27 27 26 26 27 28 29 28 28 28 29 29 29 29 28 29 29 29 29 29 30 31 32 33 34 35 36 37 38 38 39 39 39 39 39 39 39 39 40 40 41 41 42 42 42 42 42 42 42 42 42 42 42 42 42 42 43 43 43
20 20 20 20 20 20 20 20 20 20 19 19 19 19 20 19 18 19 21 23 25 26 26 26 26 25 26 26 26 26 26 26 27 27 26 25 25 25 25 25 25 26 26 26 27 28 29 30 31 33 34 35 35 36 36 37 37 37 37 37 37 37 37 38 38 38 39 39 40 41 41 42 42 42 43 43 43 43 42 43 43 43 43 43 42 42
20 20 20 20 20 20 20 20 20 19 19 18 18 18 19 20 20 20 22 24 25 26 27 27 28 27 26 26 25 26 26 26 26 26 25 25 24 23 24 24 25 25 25 26 27 28 30 31 32 33 34 34 34 35 35 35 35 35 35 35 35 36 36 37 37 38 39 39 40 41 41 42 42 43 43 43 43 43 43 43 43 43 43 43 43 43
20 20 19 20 20 20 19 19 19 19 19 18 19 20 21 22 22 22 23 24 25 26 27 28 29 29 28 26 25 24 24 25 25 25 25 25 24 24 24 25 26 26 27 28 30 30 31 31 32 32 33 32 32 32 32 33 33 33 34 34 35 36 36 37 38 38 39 39 40 41 41 42 42 43 43 43 44 44 44 44 44 44 44 43 43 43
19 19 19 19 19 19 19 19 19 19 20 20 20 21 22 22 22 22 23 24 26 27 27 28 29 29 28 25 23 22 22 22 23 25 26 27 26 25 24 25 26 28 29 30 30 31 31 31 30 31 31 31 31 31 31 31 32 33 34 35 36 36 37 37 38 38 39 39 40 40 41 41 42 43 43 43 43 44 44 43 44 44 43 43 43 43
19 18 18 19 20 20 19 19 19 19 20 21 20 21 21 22 22 22 22 24 26 26 26 26 26 27 27 25 23 21 21 21 22 24 27 29 29 27 25 26 27 29 31 31 31 32 31 30 30 30 30 31 31 31 31 32 32 34 35 36 36 37 37 38 38 38 39 39 40 40 40 41 41 42 42 43 43 43 44 44 44 44 43 43 43 43
19 19 19 19 20 20 20 19 19 20 21 21 21 20 21 22 23 23 23 24 25 25 23 22 20 18 20 26 25 22 21 21 23 25 28 31 32 31 27 26 28 30 31 31 31 30 30 30 29 30 30 30 30 31 31 32 33 35 36 36 37 37 37 38 38 38 39 39 39 40 40 41 41 41 42 42 43 43 44 44 44 44 44 44 44 44
20 20 19 19 20 20 21 20 20 20 20 20 21 21 22 22 22 22 23 24 24 23 23 23 20 17 15 21 25 26 23 23 25 27 30 33 34 33 29 27 27 29 30 30 30 29 29 28 28 29 29 30 31 32 32 33 34 35 35 36 36 37 37 38 38 39 39 40 40 40 41 41 41 41 42 42 43 43 44 44 44 45 45 45 45 45
20 20 20 20 20 21 21 20 20 20 19 20 21 22 23 23 23 23 24 24 23 23 23 22 23 23 22 25 28 29 27 26 26 28 31 33 35 34 30 27 26 28 29 29 28 28 28 28 28 29 30 30 31 32 32 33 33 34 35 35 36 37 38 38 39 39 40 40 40 41 41 41 41 42 42 42 42 43 43 44 44 44 45 45 45 46
21 21 20 21 21 21 21 21 20 20 20 20 21 22 23 24 25 25 25 25 25 24 24 23 23 25 26 28 31 32 30 28 27 28 30 32 33 32 29 25 25 26 28 28 28 27 27 27 29 29 29 30 30 30 31 32 33 34 35 36 37 38 38 39 40 40 40 40 41 41 41 41 41 41 42 42 42 42 43 43 44 44 45 45 46 46
23 23 22 20 20 21 21 21 21 21 21 21 22 22 23 24 25 26 26 25 24 23 22 21 23 26 28 29 32 34 32 28 27 27 29 30 31 30 28 25 24 26 27 28 28 28 27 27 28 29 28 29 30 31 32 33 34 35 36 37 37 38 39 39 40 40 40 40 41 41 41 41 41 41 41 41 42 42 43 43 44 44 44 45 44 45
24 23 23 22 21 21 22 23 22 22 22 22 22 23 24 25 26 27 27 25 23 22 23 25 28 31 31 33 34 34 31 27 24 24 25 25 28 30 28 25 24 25 27 29 29 28 28 27 28 28 29 30 31 32 33 34 35 35 36 37 38 38 39 39 40 40 40 40 40 40 40 40 40 40 40 41 42 42 42 42 42 43 42 41 41 40
24 24 23 22 22 22 23 23 23 22 22 21 23 25 27 28 28 28 26 24 23 25 27 30 33 35 34 33 33 31 28 25 23 22 22 20 24 28 27 25 25 26 28 29 29 28 28 28 28 29 29 30 31 32 33 34 34 35 36 37 38 38 38 38 38 38 39 39 39 39 39 39 39 39 40 40 39 39 40 41 41 41 40 39 39 38
22 23 23 22 22 22 22 22 22 23 23 24 26 29 31 31 30 28 26 26 27 30 33 35 36 35 34 32 30 28 26 23 22 21 20 21 23 26 27 26 26 27 29 29 28 27 27 28 29 29 29 30 31 32 33 34 34 35 36 36 36 37 37 37 37 36 36 36 36 37 37 37 38 38 38 38 39 40 40 40 39 39 38 37 37 38
21 22 22 22 22 23 24 24 25 26 27 29 31 32 31 29 27 28 30 31 31 32 33 32 30 30 30 29 27 26 25 22 20 19 19 21 24 27 27 26 25 26 28 28 27 27 27 29 30 30 30 30 31 32 32 33 33 34 34 34 34 34 34 34 34 35 35 35 36 37 37 38 38 38 39 39 39 39 38 37 37 36 36 37 38 39
24 25 25 25 26 27 29 30 31 32 32 33 32 30 28 28 30 32 33 32 30 29 28 27 26 27 28 27 26 26 25 22 20 18 18 20 23 26 27 25 24 24 26 28 27 27 27 29 30 31 30 30 30 30 30 30 30 30 30 31 31 32 33 33 34 35 35 36 37 37 38 38 38 37 37 37 37 36 35 35 36 37 37 38 39 40
29 29 30 31 31 32 33 34 35 35 34 33 31 30 30 31 32 32 31 30 29 27 25 22 21 22 26 25 24 25 25 23 20 19 19 20 22 24 25 24 22 23 25 27 28 27 28 29 30 30 30 29 28 28 27 27 27 27 28 29 31 32 33 34 35 36 36 37 37 37 37 36 36 36 36 35 35 34 34 35 36 36 37 37 38 37
29 30 31 32 33 34 35 34 33 32 31 30 30 30 30 30 29 29 29 29 28 25 23 21 18 17 19 22 24 26 26 24 22 21 20 20 20 20 23 23 22 23 25 27 29 29 28 28 28 28 27 26 26 25 25 25 26 27 29 31 32 33 34 34 35 35 35 35 35 35 35 35 35 34 34 34 34 34 34 35 35 36 36 35 34 33
26 28 30 31 32 31 30 29 27 27 27 27 28 28 27 27 27 28 29 28 26 24 23 23 21 19 20 23 26 27 25 23 21 19 17 17 17 20 22 22 23 23 24 26 28 30 28 26 25 24 24 24 24 24 25 26 27 29 30 32 32 33 33 33 33 33 33 34 34 34 34 34 34 34 34 33 33 33 34 34 34 34 34 32 31 31
25 27 28 27 25 23 22 21 22 23 24 25 25 25 25 24 25 26 27 25 24 22 22 22 22 22 21 21 21 20 20 20 18 15 14 15 17 20 23 23 24 23 22 21 19 19 22 25 24 22 23 24 25 25 26 28 29 30 30 30 31 31 31 31 31 32 32 32 32 33 33 33 33 33 33 33 33 33 33 33 33 32 31 31 30 31
24 23 22 20 18 18 18 19 21 22 23 24 25 24 24 23 23 23 23 22 21 21 21 21 22 22 20 17 11 9 11 19 19 16 15 16 18 21 23 23 23 23 21 17 9 6 13 19 24 25 24 25 26 27 28 28 29 29 29 29 29 29 30 30 30 30 31 31 31 32 32 32 33 33 33 33 33 33 32 32 32 31 30 30 31 31
20 17 16 17 17 18 19 20 21 22 22 23 23 23 22 21 21 20 20 20 20 20 21 21 22 22 21 18 13 10 14 21 22 19 18 17 19 22 22 22 22 23 22 19 15 11 9 10 20 28 27 27 28 28 28 28 27 27 27 28 29 29 29 29 29 29 30 30 30 31 31 31 32 32 32 32 32 31 31 31 31 30 30 30 31 32
16 15 16 18 19 19 19 20 20 21 21 21 21 21 21 20 19 19 19 19 20 20 20 21 21 21 21 22 21 21 24 25 24 21 18 17 19 20 22 22 22 23 24 23 22 19 15 15 21 27 29 29 28 28 27 27 27 27 27 28 28 29 29 28 28 29 29 29 30 30 30 30 30 30 30 30 30 29 29 30 30 30 30 31 31 32
16 17 18 18 19 19 19 19 20 20 20 21 20 20 19 18 18 19 19 19 20 20 21 21 21 21 21 21 22 24 26 25 23 20 18 17 18 20 22 22 23 23 23 22 22 21 21 22 24 25 26 28 29 27 27 26 26 26 26 26 27 28 29 29 28 28 29 29 29 29 29 28 28 28 28 27 27 28 28 29 31 32 32 32 32 33
17 18 18 18 18 18 19 21 21 21 20 20 20 19 18 18 18 19 20 20 20 20 21 21 21 21 21 20 21 23 26 26 24 21 19 19 20 21 23 23 23 22 22 21 21 20 20 23 24 24 23 26 27 27 26 25 25 25 26 26 27 28 28 28 28 28 29 29 28 28 27 27 26 26 26 26 26 28 29 31 32 33 34 33 33 33
16 17 18 18 19 20 20 21 21 20 19 19 19 18 18 18 19 19 19 19 19 20 21 22 22 22 22 23 24 26 28 28 26 24 22 21 22 23 23 24 24 23 22 21 21 20 19 21 24 25 23 22 23 25 26 26 25 25 26 27 28 28 28 28 27 28 28 27 27 27 27 26 26 26 26 27 27 28 30 31 32 33 33 33 33 33
16 17 18 18 18 19 19 20 19 19 18 19 19 18 18 19 19 20 20 20 21 21 22 23 24 25 26 26 27 29 30 29 28 27 26 25 25 25 25 25 24 23 22 21 21 21 21 20 22 23 22 20 20 22 25 27 27 27 27 28 28 28 28 27 26 26 25 26 26 26 26 26 26 26 27 27 27 28 29 30 30 31 32 32 33 33
17 18 19 18 18 18 19 19 18 18 18 19 19 19 19 19 20 21 22 22 23 24 25 25 26 26 27 28 29 30 31 31 30 30 29 29 29 28 27 26 25 24 22 21 21 22 21 18 15 14 15 19 23 25 26 27 27 28 29 29 29 28 27 26 25 25 25 25 26 27 27 26 26 26 26 26 26 27 28 29 30 30 31 31 32 33
18 19 20 20 19 19 18 18 19 19 19 19 19 19 20 21 22 23 23 23 24 24 25 25 25 26 27 28 28 29 30 30 30 30 30 30 30 28 26 25 24 24 23 22 22 22 22 19 16 13 11 16 22 26 27 26 26 27 29 30 29 27 26 25 24 24 25 25 26 26 26 26 25 25 25 26 27 28 28 29 30 30 30 30 31 32
18 18 19 19 18 18 17 18 19 19 20 19 20 20 21 21 21 21 22 22 22 22 23 23 24 24 25 26 26 27 27 28 28 28 28 28 27 25 24 24 24 24 23 23 23 22 22 22 22 22 22 21 22 24 26 26 26 27 28 26 26 26 27 26 25 25 25 25 25 25 25 25 25 25 26 26 27 27 28 28 29 29 30 29 30 31
18 19 19 19 18 17 18 19 18 18 19 19 20 20 20 19 19 20 20 20 19 19 20 20 21 23 23 24 24 24 24 25 26 26 26 25 25 25 24 24 24 23 23 23 23 23 22 22 23 23 23 23 24 25 26 27 27 27 26 24 25 27 29 28 26 25 24 24 23 24 25 25 26 26 26 27 27 27 27 27 29 30 30 29 29 29
18 18 18 18 17 17 17 18 18 19 19 19 19 19 18 18 18 18 19 19 20 20 19 19 20 21 22 23 22 22 22 22 23 23 23 23 24 25 25 24 23 22 22 23 23 23 23 22 22 23 24 24 24 24 25 27 28 27 25 25 26 28 29 27 25 23 22 23 23 24 25 25 26 27 27 28 28 28 28 28 29 29 30 29 29 28
17 17 18 17 17 17 18 18 18 18 18 18 17 18 17 17 17 18 19 20 20 20 19 19 19 20 21 22 22 21 20 20 19 20 20 21 22 23 23 23 23 23 23 23 23 23 23 23 23 23 24 24 24 24 24 26 27 27 26 25 25 24 22 23 24 25 24 25 25 25 25 25 26 27 28 29 29 29 29 28 28 28 28 28 28 28
16 17 17 17 17 17 17 17 17 17 17 17 17 18 18 18 18 18 19 19 19 19 19 19 19 20 21 21 21 20 19 18 18 18 18 19 20 21 22 23 23 23 23 23 22 22 23 23 23 24 24 24 24 24 24 25 25 26 25 25 24 23 21 23 25 27 27 26 25 24 24 25 27 28 30 30 29 29 28 28 28 28 27 26 26 26
15 16 16 16 16 16 16 16 17 17 17 17 17 18 18 18 17 17 17 18 19 19 19 19 18 18 19 19 19 19 19 18 17 17 17 17 18 18 20 21 21 21 21 21 21 21 21 22 24 24 24 24 24 24 24 24 25 25 25 25 24 24 25 26 26 25 25 26 26 25 25 26 27 28 29 29 29 28 27 27 27 27 27 26 26 26
14 15 16 16 16 16 17 17 17 17 17 17 17 17 18 17 16 16 17 18 18 19 19 18 17 17 18 19 19 19 19 18 18 17 17 17 17 17 18 18 18 18 18 19 20 21 22 22 23 25 26 25 25 25 24 23 23 23 24 24 24 24 25 25 25 24 24 25 25 26 27 27 26 27 28 28 29 29 28 26 25 25 26 26 26 25
14 15 15 16 16 16 17 17 17 17 17 17 17 17 17 16 16 16 17 18 18 18 18 18 17 17 18 18 19 18 18 18 18 18 18 18 17 17 17 16 17 17 18 19 20 22 23 24 25 25 25 24 24 24 24 23 22 22 23 24 24 24 24 24 24 24 24 24 25 26 27 27 26 26 27 28 29 28 27 26 25 25 25 25 25 25
14 15 15 15 15 16 16 16 16 16 17 17 17 17 17 16 16 17 17 18 17 17 18 17 17 17 18 18 19 18 18 18 19 19 19 18 18 17 16 16 17 17 18 19 21 22 23 24 25 26 25 23 22 22 23 23 22 22 22 23 23 23 24 24 25 25 24 24 24 25 26 25 24 25 26 27 27 27 27 26 26 25 24 24 24 25
14 14 15 15 15 16 16 16 16 16 17 17 18 18 18 17 17 17 17 17 17 17 17 17 17 17 18 18 18 18 18 18 19 19 19 18 18 17 17 18 18 19 20 20 21 21 22 22 23 24 24 24 23 23 23 23 22 22 21 22 22 22 23 24 25 25 24 24 24 24 24 24 24 24 24 25 25 26 27 27 26 25 24 23 23 24
14 14 15 15 15 16 16 16 16 16 17 17 17 17 18 17 17 16 16 16 16 16 16 16 17 17 18 18 18 18 18 18 18 18 18 18 18 18 18 19 20 20 20 20 20 20 19 19 19 19 20 21 21 22 22 22 22 22 21 21 21 21 22 23 24 24 24 24 24 25 24 25 24 23 22 22 23 25 27 27 27 26 25 24 24 25
15 15 15 15 15 16 16 16 16 16 16 17 17 17 18 17 17 16 16 15 16 16 16 17 17 17 17 17 18 18 18 18 18 18 18 18 18 18 18 19 19 19 19 18 17 17 16 14 14 15 15 14 15 16 17 19 20 20 20 21 21 21 21 22 24 24 25 25 25 24 23 23 23 22 21 21 22 23 24 25 26 27 27 26 26 27
Wind_Direction
291 293 294 295 295 294 293 292 292 293 294 295 296 296 297 297 297 296 296 296 295 294 294 294 294 294 295 295 294 294 294 293 293 293 293 293 293 293 293 293 293 293 293 293 293 292 292 293 293 293 293 293 293 293 293 293 292 292 292 292 291 291 291 291 291 290 290 290 290 290 290 290 289 289 288 288 287 287 286 285 285 284 283 282 281 281
293 294 294 294 293 292 292 292 291 291 291 293 294 295 296 296 296 296 296 295 293 293 292 293 293 293 293 293 293 293 292 292 292 292 292 292 292 292 292 291 291 292 292 292 292 291 291 291 292 292 292 292 292 292 292 292 291 291 291 291 291 291 291 291 290 290 290 290 290 289 289 289 288 288 288 287 287 286 286 285 284 284 283 282 281 280
295 295 294 294 292 291 291 292 292 291 290 291 292 293 294 295 295 295 295 294 294 292 290 291 292 292 292 292 292 292 292 292 292 293 293 292 292 292 291 291 291 291 290 290 290 290 290 290 291 291 291 291 291 291 291 291 290 290 290 290 290 290 290 290 290 290 290 289 289 289 289 288 288 288 287 287 287 286 286 285 285 284 283 283 282 281
294 294 294 295 294 291 289 291 292 292 291 291 291 292 292 292 292 292 292 293 293 292 290 290 290 291 291 292 292 292 292 293 293 294 294 293 292 292 292 291 290 289 289 289 289 289 289 290 290 290 290 290 290 290 290 290 290 290 290 289 289 289 289 289 289 289 289 289 289 289 289 289 288 288 288 287 287 287 286 286 285 284 284 283 282 282
292 292 293 295 295 292 291 291 292 293 292 292 291 291 291 290 290 291 292 292 292 292 292 290 290 290 290 291 291 292 294 294 294 294 294 294 293 292 291 291 290 289 289 288 288 288 289 289 289 289 289 290 289 289 289 289 289 289 289 289 289 289 290 289 289 289 289 289 289 289 289 289 288 288 288 288 288 287 287 286 286 285 284 283 283 282
291 291 292 293 292 292 293 293 293 293 294 293 292 291 290 290 290 291 292 293 293 293 293 292 291 291 291 290 292 293 295 295 295 295 294 293 293 292 291 290 290 289 288 288 288 289 289 289 289 289 289 289 289 288 288 288 287 287 287 288 289 289 289 289 289 289 289 289 289 289 289 289 288 288 288 288 288 287 287 287 286 286 285 284 284 283
292 291 292 291 290 290 291 291 291 292 293 293 294 293 292 292 292 292 292 291 292 292 293 292 292 292 292 293 294 295 296 296 296 296 295 294 293 292 292 291 290 289 289 288 288 288 288 288 288 288 288 288 287 287 287 287 286 286 286 286 287 288 288 288 288 288 289 289 289 289 289 288 288 288 288 288 288 288 287 287 287 286 286 285 285 284
291 292 292 291 290 291 291 290 290 289 290 291 294 295 296 296 295 294 293 291 290 290 293 294 294 294 295 296 297 298 297 297 297 296 296 295 294 293 292 291 290 289 289 289 288 288 287 287 287 287 287 287 286 287 287 287 287 286 286 286 286 287 287 287 288 288 288 288 289 289 289 289 288 288 288 288 288 288 287 287 287 286 286 286 285 285
288 290 291 290 289 290 292 292 291 290 290 290 292 295 297 298 298 297 296 294 293 293 295 297 298 298 298 299 299 299 298 296 295 295 295 294 293 292 292 291 290 289 289 288 287 287 287 287 287 286 286 286 286 287 287 287 287 287 287 287 287 287 287 287 287 287 288 288 288 289 289 289 289 289 288 288 288 287 287 287 287 286 286 286 286 285
284 286 288 289 288 288 290 293 294 294 293 292 291 290 292 294 297 298 299 298 298 299 299 299 300 301 301 301 300 299 298 296 295 293 292 291 290 290 290 289 288 288 287 287 286 286 287 287 287 287 287 287 287 287 287 287 287 287 287 287 287 288 288 288 287 287 287 288 288 288 289 289 289 289 288 288 288 288 287 287 287 287 287 286 286 285
285 286 288 290 291 291 290 291 294 296 296 294 292 289 289 290 294 299 301 301 302 302 302 300 300 300 301 302 302 300 299 297 296 295 293 291 289 288 288 288 287 287 287 288 288 288 288 288 288 288 288 288 287 287 287 287 287 287 287 287 287 288 288 288 288 287 287 288 288 289 289 289 289 289 289 289 289 288 288 288 287 287 287 286 286 285
287 289 290 291 292 294 293 293 294 295 296 295 294 294 294 294 297 300 300 301 302 303 303 302 300 300 300 301 301 301 300 297 296 296 295 294 292 292 291 292 291 291 291 291 291 291 290 290 289 289 289 288 287 287 287 286 286 287 287 287 287 288 288 288 288 288 288 288 289 289 289 289 289 290 290 289 289 289 288 288 288 287 287 286 286 285
286 288 290 290 291 292 294 295 296 296 296 295 295 296 298 300 302 301 299 298 299 301 303 302 302 300 300 299 299 300 299 297 296 296 296 295 295 295 296 295 295 294 295 294 293 292 292 291 290 289 289 288 287 287 286 286 287 287 287 288 288 289 289 289 289 289 289 289 290 290 290 290 290 289 289 289 289 289 288 288 288 287 287 286 286 285
286 288 289 289 289 290 292 294 294 295 295 295 295 296 298 300 301 301 299 297 298 300 302 302 301 300 301 300 299 299 298 298 298 297 296 295 296 297 297 296 295 295 294 294 293 292 292 292 291 290 289 288 288 287 287 287 288 289 289 290 290 291 291 291 290 290 290 290 290 290 290 289 289 289 289 289 288 288 288 288 288 287 287 287 286 285
286 288 288 288 288 289 291 292 292 292 293 294 296 297 298 299 299 299 298 298 300 302 303 302 300 300 300 300 301 301 300 299 299 299 298 297 296 297 298 297 295 294 294 293 292 292 292 291 290 289 289 289 289 288 289 289 290 290 291 291 292 291 291 291 290 290 290 290 290 289 289 289 288 288 288 288 289 289 289 288 288 288 288 287 287 286
284 285 285 285 286 287 288 290 291 291 293 294 296 297 297 297 298 298 297 298 300 302 302 302 302 301 301 301 303 305 305 303 301 299 299 297 296 297 298 297 295 293 293 292 291 292 292 291 290 289 289 289 289 289 290 290 291 291 291 291 291 291 291 291 291 291 290 290 290 289 288 288 288 288 288 289 289 289 289 289 289 289 289 289 288 288
280 280 281 282 284 286 287 288 288 289 291 293 294 294 294 294 295 296 295 296 298 300 299 300 301 302 303 303 304 306 308 307 304 301 298 296 296 296 297 295 293 292 291 291 291 291 292 291 290 290 290 289 290 291 291 291 291 292 292 291 291 291 291 291 291 290 290 290 289 289 289 288 288 288 289 289 289 289 289 290 290 290 289 289 289 288
276 276 278 280 281 283 285 287 287 288 289 291 293 293 292 292 292 293 293 294 295 296 296 296 296 297 299 301 303 305 309 309 305 301 298 295 295 296 297 294 291 289 289 289 290 291 291 290 290 290 290 290 291 291 292 292 292 292 291 291 291 291 291 291 291 290 290 289 289 289 288 288 288 288 288 288 288 288 288 288 288 289 289 288 288 288
273 273 274 276 278 280 282 283 284 286 287 289 291 293 293 293 293 293 292 292 291 290 291 292 292 293 294 295 298 303 308 308 304 300 297 295 294 296 297 295 291 289 288 289 290 291 292 291 290 290 290 290 291 292 292 292 292 292 292 292 292 292 291 291 290 290 289 288 288 287 287 287 286 286 286 286 286 286 286 286 286 287 287 287 288 287
272 271 269 272 276 278 279 279 280 282 285 288 290 291 291 293 294 293 292 291 289 287 287 287 289 291 293 294 297 301 305 306 302 297 295 293 293 295 297 296 292 290 289 290 291 293 293 292 292 292 291 292 292 293 293 293 293 293 293 292 292 292 291 290 289 289 288 287 287 286 286 285 285 285 285 285 285 285 285 285 285 285 286 286 287 287
269 269 267 268 271 274 275 277 279 281 283 286 287 288 289 291 292 291 290 289 288 287 287 286 289 292 296 297 298 300 303 302 298 295 294 293 292 294 296 296 294 292 291 292 294 295 295 293 293 293 293 293 294 294 294 294 294 293 293 292 292 291 290 289 289 288 287 286 286 285 285 285 285 286 286 286 285 285 285 286 286 286 287 288 288 288
265 266 267 267 267 268 271 275 278 280 282 283 284 285 286 288 288 288 287 286 286 287 289 291 294 295 297 296 296 298 300 297 293 291 293 292 291 293 296 298 296 293 292 294 296 297 296 295 294 293 294 294 295 295 294 294 293 293 292 292 291 290 290 289 288 287 286 285 285 286 286 286 286 286 287 287 287 287 288 288 289 289 289 289 290 290
259 262 266 266 265 266 269 273 276 279 280 279 279 280 281 282 281 281 282 285 289 293 296 297 297 296 295 293 294 295 296 295 292 290 289 288 289 292 297 299 298 295 293 295 297 298 297 296 295 294 295 295 295 295 294 294 293 293 292 292 291 290 289 288 287 287 286 286 287 287 287 288 289 289 290 290 290 290 291 291 291 290 290 290 291 292
257 260 263 264 264 264 267 270 274 277 278 278 277 277 278 278 278 281 287 294 297 298 298 298 296 295 294 293 293 293 294 294 293 290 286 285 287 291 296 299 299 296 294 296 297 298 298 296 296 296 296 296 296 295 294 293 293 292 292 291 290 289 289 288 288 288 288 289 290 291 291 292 292 293 293 293 292 292 292 291 291 291 291 292 293 294
258 259 261 263 264 265 268 270 274 276 277 278 279 280 282 285 288 292 296 297 298 298 297 297 295 294 294 295 295 294 295 295 294 290 286 286 288 291 294 297 297 296 295 296 298 299 298 297 297 298 298 297 296 295 294 293 292 291 291 290 289 289 289 289 290 291 292 292 293 293 293 294 294 294 293 293 293 292 292 292 292 293 295 297 298 298
262 262 264 265 267 269 271 273 275 276 278 279 282 286 292 297 299 298 297 296 296 296 296 295 293 292 294 295 294 294 296 297 295 290 287 287 289 291 293 296 296 295 295 297 299 300 299 299 299 299 299 298 297 295 294 293 292 291 291 291 290 291 291 292 293 293 293 294 294 294 294 294 294 294 293 293 293 294 294 295 296 298 299 300 299 298
265 266 267 269 271 272 274 275 276 278 280 282 285 289 293 296 296 295 293 293 294 296 294 293 292 292 294 294 293 294 296 297 295 291 288 286 286 288 292 296 297 297 297 299 300 300 300 299 299 299 298 298 297 296 295 294 294 294 293 293 293 293 293 293 293 293 293 294 294 294 294 295 295 295 295 295 295 296 297 297 298 299 300 300 299 297
267 268 270 272 273 274 275 276 277 280 282 284 286 288 289 290 290 290 289 291 293 294 290 288 289 291 293 293 293 294 296 295 294 292 289 286 283 285 290 297 299 300 300 301 300 300 299 297 297 297 298 298 298 298 298 298 298 297 296 295 294 294 293 292 292 293 293 294 294 295 295 296 296 296 296 297 297 298 298 298 299 299 299 299 298 297
271 272 273 273 274 275 276 278 279 281 283 284 285 285 285 285 284 284 285 289 291 290 287 285 285 287 289 291 293 294 293 292 292 293 293 290 285 286 293 298 301 301 303 303 303 302 299 297 297 298 298 299 300 300 300 301 300 299 297 296 294 293 293 293 293 293 294 295 295 296 297 297 297 298 298 298 298 298 298 299 300 301 301 300 299 298
276 276 275 276 277 279 280 282 283 284 284 283 283 283 282 281 279 279 282 285 286 284 283 283 284 285 287 291 293 293 292 291 294 299 304 300 293 292 296 299 300 301 303 305 305 303 301 301 301 300 301 302 302 302 301 301 300 299 298 296 295 294 294 294 294 295 296 296 297 297 298 298 298 298 298 298 299 299 299 300 301 302 302 302 301 300
277 277 278 280 283 286 287 286 286 285 285 284 284 283 282 279 277 277 278 279 279 278 278 280 281 282 283 287 290 290 289 292 296 304 310 303 295 293 297 298 298 299 301 301 302 302 303 304 304 304 304 304 302 301 300 300 299 299 298 297 296 296 295 296 296 297 297 298 298 298 299 299 299 299 299 299 299 299 299 301 302 303 303 302 301 300
279 282 286 289 290 290 289 287 286 286 286 286 285 284 283 280 277 275 275 275 274 273 274 276 277 278 278 277 276 276 282 288 293 300 305 300 294 292 295 295 296 297 298 295 291 290 297 302 304 305 305 304 302 301 300 299 299 298 298 297 297 296 297 298 299 299 300 300 300 299 299 299 299 298 298 298 298 298 299 300 302 302 302 302 301 299
287 290 291 291 291 290 288 287 287 287 287 286 286 285 284 281 278 275 273 273 271 270 270 272 274 275 276 275 274 275 279 283 289 296 299 297 294 293 294 294 295 296 297 295 291 288 288 292 300 303 304 303 301 300 300 299 299 298 298 297 297 297 299 300 301 301 301 301 301 300 300 299 298 298 298 297 297 298 299 300 301 301 301 301 300 299
292 292 291 291 290 289 289 288 288 288 287 287 286 285 284 281 279 278 276 274 271 269 267 267 269 272 275 277 277 278 279 282 287 293 297 296 293 292 293 293 294 295 297 296 295 294 292 294 297 300 302 302 300 299 299 299 298 298 298 297 297 298 300 302 302 302 302 301 301 300 300 299 298 298 297 297 297 298 299 300 300 300 300 299 299 298
293 292 292 292 291 291 291 292 291 290 288 287 286 285 284 282 281 280 279 276 273 270 268 266 266 268 272 276 279 281 282 284 287 291 293 292 290 290 291 291 292 294 295 296 298 299 298 297 297 298 299 300 300 299 298 298 299 299 299 298 298 299 300 301 302 302 302 301 300 299 299 299 299 298 298 298 298 298 299 300 300 300 299 298 297 296
293 292 293 293 294 294 293 293 292 291 289 287 287 286 285 284 284 283 281 278 275 273 271 270 269 269 270 272 275 278 280 284 287 289 289 287 286 286 287 287 288 291 293 296 298 299 299 298 297 297 297 298 299 300 300 301 301 301 300 300 300 300 300 300 301 300 300 300 299 299 299 299 299 298 298 298 298 299 299 300 300 299 299 298 296 295
292 292 294 294 295 295 293 292 291 289 289 289 289 289 288 287 286 285 283 281 278 277 275 274 273 271 270 270 271 272 276 280 283 284 284 283 282 281 281 282 284 287 291 295 297 297 297 296 297 297 296 295 296 299 301 304 304 303 302 302 302 301 301 301 300 299 298 298 298 298 299 299 299 299 299 299 300 301 300 300 300 299 299 298 297 295
293 293 295 295 294 293 292 291 290 289 290 291 291 291 290 289 287 286 285 283 281 279 277 276 275 273 272 271 270 272 274 277 279 280 280 279 278 278 278 280 284 287 290 291 292 293 293 294 295 296 297 295 295 296 299 302 304 304 303 303 302 301 300 301 301 300 300 299 299 299 299 299 299 300 301 302 303 303 302 302 301 300 300 299 298 296
294 294 294 293 292 291 290 289 289 290 291 291 291 291 291 290 289 287 285 284 282 279 277 276 276 275 275 274 274 275 275 276 277 278 278 277 276 275 277 281 285 288 289 288 287 287 288 288 289 290 293 295 296 297 299 300 301 302 303 303 303 302 301 302 303 302 302 300 299 299 299 300 300 302 302 303 304 304 303 302 301 301 301 300 299 298
293 292 291 290 289 288 287 288 289 291 292 292 292 292 292 291 290 288 287 286 284 282 280 279 278 278 278 278 278 277 277 277 277 277 276 276 276 277 279 281 284 286 287 287 286 284 284 284 285 286 288 290 294 296 298 299 299 300 302 303 303 303 303 304 303 302 301 299 299 299 300 302 303 303 303 303 303 302 302 301 301 300 300 300 299 299
289 289 288 288 288 287 287 288 290 291 292 293 293 293 292 291 292 292 292 291 289 287 285 285 284 283 282 280 279 279 278 277 276 276 275 275 277 278 278 278 280 282 284 285 284 283 281 282 283 285 287 289 291 294 295 296 297 298 299 299 299 300 301 302 302 301 301 300 300 301 302 303 304 304 304 303 303 301 300 299 298 298 298 297 296 295
286 285 285 286 287 288 289 290 291 292 292 292 292 291 291 292 293 294 295 294 292 291 290 289 289 288 288 286 284 282 279 277 276 275 275 276 277 278 277 277 277 279 281 282 283 283 282 282 283 285 287 290 292 293 294 294 295 296 296 295 297 299 302 302 302 302 302 302 302 303 303 304 304 305 304 304 302 301 300 298 296 296 296 295 294 293
282 282 284 285 287 288 290 291 291 292 293 291 290 290 291 293 294 294 294 293 292 291 291 291 290 290 290 290 289 288 284 281 278 277 276 277 278 279 279 278 277 278 280 281 282 282 283 284 283 284 287 289 290 290 291 293 294 295 295 295 296 299 302 302 304 305 305 304 304 304 304 305 305 305 304 303 302 301 300 298 296 295 293 292 292 292
280 282 284 286 288 289 290 291 291 292 293 291 291 292 293 294 293 293 292 291 291 291 292 292 293 292 290 289 290 291 290 287 284 281 280 280 280 281 281 280 278 277 277 277 278 282 285 287 286 286 287 288 288 288 289 290 292 293 294 295 295 294 294 297 301 304 305 305 305 305 306 307 307 306 305 303 302 301 300 299 298 297 295 292 291 290
280 282 284 286 288 289 290 290 291 292 292 291 291 292 294 295 293 291 290 290 291 292 292 293 294 293 291 290 292 293 293 292 291 289 287 286 285 284 283 281 280 278 276 274 275 279 283 286 288 289 290 289 287 286 286 287 289 291 292 294 295 294 294 296 299 302 304 305 306 307 307 308 308 307 306 304 303 302 301 299 298 297 296 295 293 292
279 282 284 287 288 288 290 291 292 293 292 292 292 293 295 295 294 292 291 290 291 292 291 292 291 290 289 291 293 295 295 295 295 295 295 295 294 291 288 285 282 280 279 278 279 279 280 281 284 287 290 290 288 285 284 284 286 288 291 295 298 298 299 300 302 303 304 305 306 307 308 309 309 307 305 304 304 303 302 300 298 297 297 297 296 295
279 282 284 287 288 289 290 292 293 293 293 293 293 294 295 296 295 294 292 292 291 291 291 291 289 287 287 289 291 293 295 296 298 299 300 300 299 297 294 292 289 287 285 284 283 283 280 279 279 282 284 286 286 285 285 284 285 288 292 296 299 301 302 303 304 305 306 306 306 308 310 311 310 308 306 305 305 304 303 302 300 299 299 299 299 298
280 282 284 287 288 289 291 292 293 293 293 294 294 295 296 296 295 295 294 293 292 292 292 291 290 288 287 287 289 291 293 296 298 300 302 303 303 302 301 301 299 297 294 291 288 285 283 280 278 276 275 275 277 281 284 286 287 288 291 295 299 301 302 303 305 307 308 307 307 308 310 311 310 308 307 306 305 304 304 304 304 303 302 302 301 301
280 282 284 286 288 289 290 292 293 293 293 294 295 296 297 296 295 294 293 293 292 291 291 290 289 289 288 288 290 292 294 296 297 299 301 303 305 306 307 307 307 306 303 300 296 292 289 285 279 273 268 265 267 272 278 284 287 289 292 296 299 302 303 305 307 308 310 309 309 310 310 310 308 305 305 305 304 304 305 306 306 307 307 306 306 305
282 282 284 285 287 288 289 291 292 292 293 293 295 296 297 297 296 294 292 291 291 289 288 288 288 288 289 290 292 295 296 298 298 299 301 303 306 308 310 311 311 311 309 307 305 303 301 297 290 281 271 263 261 265 272 281 288 293 297 299 302 304 305 306 307 309 311 311 312 312 311 310 309 307 304 303 304 305 306 307 308 310 311 311 310 309
283 284 284 285 285 286 288 290 290 290 291 292 294 295 297 297 297 296 294 292 291 289 288 287 287 287 288 291 293 296 297 298 298 299 301 304 307 309 310 311 312 313 312 312 312 311 311 309 305 300 292 278 267 265 271 282 291 297 300 302 304 306 307 307 308 310 311 312 313 312 311 311 311 310 309 306 306 306 307 309 310 312 313 314 314 313